Temp
10 10 9 9 8 11 13 14 12 11 11 10 9 9 10 10 10 9 8 8 8 8 8 8 8 8 7 8 7 7 7 6 6 5 5 5 5 5 5 5 5 6 6 6 7 6 6 6 7
10 9 9 8 9 13 15 13 11 11 10 9 8 8 8 9 9 7 8 8 8 8 8 7 8 7 7 7 7 6 6 6 5 5 5 4 5 5 5 5 5 6 6 6 6 6 6 6 6
9 9 7 9 11 13 14 12 11 10 9 9 9 8 9 8 7 7 8 8 7 7 7 7 7 7 6 6 6 6 6 5 5 5 4 4 5 4 5 5 5 6 5 5 6 6 6 6 6
9 8 7 9 12 13 12 12 10 9 9 8 9 9 8 8 7 8 7 7 7 7 7 7 6 6 6 5 5 5 4 5 3 4 4 4 4 4 4 5 5 5 5 5 5 5 6 6 6
8 7 9 11 12 12 11 10 9 9 9 9 8 9 8 8 8 7 7 7 7 7 7 6 6 6 6 5 5 5 3 3 2 2 3 3 3 4 4 5 4 4 5 6 5 5 5 5 5
6 8 9 12 13 12 10 10 9 9 9 8 7 8 8 8 7 7 7 7 7 7 7 6 6 6 6 5 5 5 4 3 3 2 3 4 3 3 4 4 5 4 4 5 5 5 5 5 5
6 9 10 11 12 12 11 10 8 9 8 9 8 8 8 8 7 7 7 7 7 6 6 6 6 6 6 5 5 4 4 3 3 3 3 3 3 2 2 2 4 4 4 4 5 5 5 4 4
6 8 9 10 11 12 11 10 8 8 9 8 8 8 9 7 7 7 7 7 7 7 6 6 6 6 5 5 4 3 2 3 3 3 3 2 3 2 2 3 2 3 4 4 4 4 4 4 4
6 7 9 10 11 11 10 9 8 7 7 8 8 7 7 7 7 7 7 7 7 7 6 6 6 6 5 4 4 3 2 3 3 3 3 1 3 2 2 3 3 3 3 4 4 4 4 4 4
6 8 9 10 11 10 9 8 8 9 8 9 8 7 7 7 7 7 7 7 7 7 6 6 6 6 5 4 4 3 2 2 3 3 3 2 1 3 1 2 2 3 3 3 3 3 3 3 4
7 7 9 10 9 9 9 9 9 8 8 9 8 8 8 7 7 7 7 7 7 7 6 6 6 6 5 4 4 3 3 3 3 2 2 2 2 2 1 1 1 2 2 3 3 3 3 3 3
7 7 8 8 9 8 8 8 8 8 8 8 8 7 7 6 7 7 7 7 6 6 6 6 6 6 5 4 4 3 4 3 3 2 2 2 2 2 0 1 1 2 2 2 2 3 3 3 3
7 7 7 8 8 7 7 7 8 8 8 8 8 7 7 7 7 7 7 7 6 6 6 6 6 6 3 3 3 4 3 3 3 3 2 2 2 2 1 -0 0 2 2 2 2 2 3 3 2
7 7 7 7 7 7 7 7 7 8 8 7 7 7 7 7 8 7 7 7 6 6 6 6 6 6 4 4 3 3 3 3 3 3 3 2 2 1 1 -0 0 1 1 1 2 2 3 2 2
6 6 6 7 7 7 7 7 8 8 8 8 7 7 7 7 8 7 7 7 6 6 6 6 6 6 5 4 3 3 3 3 3 3 3 3 2 2 1 -0 -1 1 1 1 1 2 2 1 2
5 5 6 7 8 9 8 8 9 9 9 8 8 8 7 8 8 7 7 7 6 6 6 6 5 5 5 4 3 3 3 3 3 2 2 3 2 1 1 -0 -1 -0 1 1 1 2 1 1 1
5 6 7 8 9 8 8 8 10 9 8 8 8 8 7 8 8 7 7 6 6 6 5 5 5 5 4 3 3 3 3 4 4 3 2 2 2 1 -1 -2 -2 -0 -1 -0 0 0 1 1 2
6 6 7 8 9 9 8 9 9 9 8 8 8 8 7 7 7 7 7 6 6 6 5 5 5 4 2 2 3 3 3 3 2 2 2 1 0 -0 -1 -3 -3 -2 -1 -2 -2 -1 -0 1 1
6 7 9 9 10 8 8 8 9 9 9 9 8 8 7 6 6 7 7 6 6 6 5 5 4 2 2 2 2 2 3 2 2 1 0 0 0 -0 -3 -3 -3 -2 -1 -1 -1 -1 -0 1 1
4 6 7 7 8 8 7 8 8 9 9 9 9 9 8 7 6 7 7 6 6 6 6 5 4 2 2 2 2 2 1 1 1 1 0 -0 -1 -3 -3 -4 -3 -2 -1 -1 -1 -1 0 0 -0
4 5 6 7 8 8 7 7 8 9 9 9 9 9 8 8 6 8 7 6 6 6 6 6 4 3 2 2 1 1 1 1 1 0 0 -2 -3 -4 -3 -3 -2 -2 -2 -1 -2 -1 -0 0 -0
4 5 5 5 6 7 8 10 9 10 10 10 9 8 8 8 6 7 7 7 6 6 6 6 4 3 3 2 2 1 1 1 1 0 0 -0 -1 -2 -2 -2 -2 -1 -1 -1 -1 -1 -1 -0 -0
4 4 4 5 6 7 7 8 9 9 10 10 9 9 8 8 7 6 7 7 7 6 6 6 5 4 3 2 1 1 1 1 0 0 -0 -1 -2 -2 -2 -1 -1 -2 -1 -1 -1 -1 -1 -0 -0
3 4 4 5 6 7 7 8 9 10 10 10 9 9 9 8 7 6 7 7 7 7 6 6 6 5 3 2 1 1 1 0 0 0 0 0 -1 -2 -2 -1 -2 -2 -2 -1 -1 -1 -0 -0 -0
2 4 6 6 7 7 8 9 9 10 10 10 9 9 9 8 7 6 7 7 7 7 6 6 6 6 4 2 2 1 1 0 1 0 0 -1 -1 -1 -1 -1 -2 -2 -1 -1 -1 -1 -0 -0 -0
3 3 5 6 8 10 10 10 9 9 9 9 9 9 8 8 7 6 6 7 7 7 7 6 6 6 6 4 3 2 2 2 1 0 0 0 -0 -0 -1 -1 -2 -1 -1 -1 -1 -1 -1 -1 -0
4 3 4 6 7 7 8 9 9 9 9 8 8 8 8 8 7 6 5 7 7 7 7 6 6 6 6 6 5 3 2 2 1 1 0 0 0 -0 -1 -1 -0 -1 -1 -0 -1 -0 -1 -0 -0
2 5 5 5 6 6 9 9 10 9 9 8 8 8 8 8 8 6 6 7 7 7 7 7 6 6 6 6 6 5 4 3 2 1 1 0 -0 -0 -1 -1 0 -0 -0 -0 -0 0 0 -0 0
3 3 4 5 5 7 8 10 9 9 9 9 8 7 7 8 8 7 7 7 7 7 7 7 7 6 6 6 6 6 5 5 4 3 3 2 1 1 1 1 1 0 0 0 0 1 1 1 1
4 4 4 5 6 7 7 8 8 8 8 8 7 7 7 8 7 7 6 7 7 7 7 7 7 7 6 6 6 6 5 5 5 5 4 3 3 3 2 1 1 1 1 1 1 1 1 1 1
Height
3135 3135 3134 3136 3142 3134 3126 3124 3127 3128 3128 3127 3126 3127 3128 3127 3128 3129 3123 3123 3122 3122 3120 3120 3121 3121 3122 3123 3124 3124 3124 3125 3126 3128 3131 3134 3135 3136 3137 3137 3141 3142 3142 3145 3149 3150 3151 3152 3153
3133 3133 3133 3137 3136 3126 3118 3120 3126 3127 3127 3125 3124 3124 3126 3126 3125 3123 3123 3121 3121 3120 3118 3117 3118 3118 3119 3120 3120 3120 3121 3122 3123 3124 3126 3130 3132 3134 3135 3137 3138 3140 3143 3146 3148 3149 3149 3153 3154
3131 3131 3134 3135 3130 3124 3120 3120 3124 3125 3123 3124 3124 3124 3125 3125 3122 3121 3120 3119 3118 3118 3116 3116 3115 3115 3116 3117 3117 3119 3119 3117 3117 3119 3121 3125 3130 3132 3133 3136 3139 3140 3141 3144 3146 3149 3151 3152 3153
3129 3131 3132 3130 3124 3122 3122 3122 3122 3123 3122 3121 3123 3123 3121 3120 3119 3118 3117 3117 3116 3114 3114 3112 3112 3111 3111 3112 3109 3111 3112 3111 3105 3115 3117 3120 3125 3130 3130 3134 3136 3137 3139 3142 3147 3148 3150 3152 3154
3127 3130 3130 3125 3122 3120 3120 3121 3120 3121 3121 3120 3121 3121 3120 3117 3116 3115 3115 3114 3113 3112 3110 3109 3108 3107 3106 3106 3105 3106 3105 3105 3091 3092 3102 3115 3121 3125 3130 3133 3134 3136 3139 3142 3146 3148 3150 3152 3153
3127 3129 3126 3120 3116 3116 3118 3119 3118 3119 3119 3118 3118 3118 3119 3114 3114 3112 3111 3110 3109 3109 3107 3105 3103 3102 3101 3099 3100 3101 3100 3102 3105 3100 3112 3113 3117 3121 3122 3131 3133 3136 3138 3142 3144 3148 3150 3151 3153
3123 3126 3121 3118 3116 3115 3116 3116 3116 3117 3116 3116 3114 3116 3115 3111 3111 3109 3108 3106 3105 3104 3104 3101 3098 3097 3096 3095 3093 3095 3096 3097 3100 3102 3104 3106 3104 3112 3120 3127 3133 3134 3137 3140 3143 3147 3150 3151 3154
3122 3123 3118 3115 3114 3113 3113 3113 3114 3114 3114 3111 3112 3113 3114 3105 3107 3106 3104 3102 3101 3100 3099 3097 3094 3091 3090 3090 3090 3090 3091 3093 3096 3100 3101 3102 3101 3110 3119 3126 3129 3131 3136 3139 3142 3146 3149 3151 3153
3119 3118 3113 3112 3111 3110 3111 3110 3110 3110 3109 3110 3110 3110 3107 3105 3103 3102 3100 3098 3096 3095 3093 3092 3090 3088 3085 3085 3086 3084 3086 3091 3093 3095 3098 3100 3103 3107 3116 3123 3128 3130 3134 3138 3140 3144 3148 3152 3152
3113 3112 3110 3109 3108 3108 3108 3108 3108 3109 3108 3106 3106 3104 3102 3101 3099 3098 3095 3092 3091 3090 3089 3087 3086 3084 3081 3081 3082 3082 3082 3086 3089 3093 3095 3095 3093 3105 3113 3120 3125 3129 3132 3137 3140 3144 3148 3150 3152
3107 3104 3107 3107 3105 3105 3105 3105 3104 3104 3103 3104 3104 3103 3102 3096 3095 3093 3091 3089 3084 3085 3083 3082 3079 3077 3076 3076 3079 3080 3080 3084 3086 3091 3093 3095 3101 3104 3110 3117 3122 3126 3130 3135 3139 3143 3147 3149 3151
3102 3100 3102 3102 3102 3100 3100 3100 3099 3099 3099 3100 3099 3098 3095 3094 3090 3089 3087 3085 3081 3080 3079 3076 3074 3069 3068 3071 3073 3076 3077 3079 3084 3087 3089 3093 3097 3100 3107 3115 3119 3123 3129 3135 3139 3142 3144 3147 3149
3096 3096 3097 3098 3097 3095 3095 3093 3093 3092 3093 3094 3093 3092 3089 3088 3086 3084 3083 3081 3078 3075 3074 3073 3070 3064 3064 3066 3069 3071 3075 3077 3079 3083 3083 3088 3090 3098 3104 3112 3117 3121 3127 3134 3137 3141 3144 3146 3148
3094 3092 3091 3092 3092 3091 3090 3087 3088 3086 3089 3087 3087 3086 3085 3082 3082 3080 3079 3077 3075 3071 3070 3068 3066 3063 3060 3062 3065 3067 3071 3073 3076 3079 3081 3084 3090 3092 3102 3107 3115 3120 3126 3132 3136 3140 3143 3145 3147
3088 3087 3086 3085 3085 3084 3086 3082 3080 3080 3082 3082 3082 3082 3080 3079 3077 3076 3075 3073 3071 3068 3065 3064 3062 3060 3058 3059 3062 3064 3065 3068 3072 3074 3074 3078 3085 3089 3096 3102 3112 3119 3125 3130 3134 3138 3140 3143 3146
3083 3084 3079 3079 3080 3080 3081 3074 3077 3076 3076 3077 3078 3078 3076 3074 3073 3072 3070 3069 3067 3064 3061 3060 3058 3056 3054 3055 3057 3059 3062 3063 3065 3068 3069 3072 3075 3081 3090 3097 3111 3118 3124 3129 3133 3136 3138 3142 3144
3077 3076 3074 3073 3074 3075 3074 3071 3072 3072 3072 3072 3073 3074 3072 3070 3069 3068 3066 3065 3063 3061 3058 3056 3054 3052 3050 3051 3053 3055 3058 3058 3060 3063 3065 3070 3077 3082 3087 3095 3109 3117 3123 3128 3131 3135 3137 3139 3142
3069 3071 3070 3068 3070 3068 3069 3067 3068 3069 3068 3068 3068 3069 3068 3066 3065 3064 3062 3061 3060 3057 3054 3052 3050 3048 3046 3049 3050 3052 3054 3054 3056 3059 3065 3070 3074 3079 3085 3096 3108 3113 3117 3121 3127 3132 3135 3141 3143
3065 3065 3062 3063 3064 3063 3064 3063 3062 3063 3063 3063 3063 3064 3064 3063 3061 3060 3058 3058 3057 3054 3051 3049 3046 3045 3046 3048 3049 3051 3053 3056 3060 3066 3070 3074 3075 3080 3088 3099 3102 3108 3113 3121 3127 3131 3137 3139 3141
3061 3060 3059 3060 3060 3060 3060 3057 3057 3056 3056 3056 3057 3058 3059 3059 3057 3055 3054 3054 3054 3052 3049 3046 3043 3044 3046 3048 3050 3051 3054 3059 3063 3067 3068 3071 3075 3080 3085 3092 3104 3110 3117 3123 3127 3132 3135 3137 3140
3053 3055 3057 3056 3056 3054 3055 3051 3050 3047 3047 3049 3050 3052 3054 3054 3052 3051 3050 3051 3050 3049 3048 3045 3042 3043 3045 3047 3050 3052 3055 3059 3061 3064 3067 3070 3074 3079 3087 3097 3105 3111 3116 3120 3124 3129 3132 3135 3138
3047 3051 3052 3053 3053 3049 3050 3039 3040 3040 3039 3041 3043 3045 3047 3049 3049 3046 3047 3047 3046 3047 3046 3044 3042 3042 3044 3046 3048 3051 3054 3057 3062 3063 3065 3067 3072 3080 3089 3097 3103 3108 3113 3117 3122 3126 3129 3132 3135
3041 3048 3048 3048 3046 3046 3044 3041 3034 3036 3034 3036 3038 3039 3041 3044 3044 3043 3043 3043 3043 3043 3044 3043 3042 3042 3042 3044 3047 3048 3052 3056 3059 3062 3066 3068 3075 3081 3087 3094 3098 3105 3110 3115 3118 3123 3126 3129 3131
3039 3043 3044 3043 3042 3037 3035 3035 3028 3028 3028 3030 3032 3033 3036 3039 3040 3040 3039 3040 3040 3041 3042 3042 3041 3040 3041 3043 3045 3047 3050 3054 3056 3060 3064 3069 3074 3081 3086 3092 3096 3103 3107 3110 3115 3119 3122 3125 3127
3035 3039 3037 3034 3032 3026 3027 3024 3023 3023 3024 3026 3028 3030 3032 3034 3036 3036 3035 3037 3038 3039 3040 3040 3040 3040 3039 3041 3043 3046 3048 3051 3056 3059 3064 3068 3073 3078 3083 3089 3094 3099 3103 3107 3111 3115 3118 3120 3122
3027 3031 3029 3024 3016 3014 3013 3014 3018 3020 3021 3023 3025 3027 3028 3030 3031 3031 3032 3034 3035 3037 3038 3038 3039 3039 3039 3040 3041 3044 3047 3050 3054 3058 3062 3067 3071 3077 3082 3087 3091 3097 3101 3104 3107 3110 3113 3115 3117
3023 3023 3027 3024 3020 3021 3016 3014 3016 3015 3018 3020 3021 3023 3025 3026 3027 3027 3029 3031 3032 3035 3036 3038 3037 3039 3040 3040 3040 3042 3045 3048 3052 3055 3059 3064 3069 3073 3077 3083 3087 3092 3097 3100 3103 3105 3108 3110 3112
3014 3022 3024 3023 3021 3018 3014 3011 3009 3010 3013 3017 3018 3019 3020 3021 3022 3023 3024 3027 3029 3032 3034 3035 3036 3037 3039 3040 3041 3042 3044 3046 3050 3053 3056 3060 3065 3068 3073 3077 3082 3087 3092 3096 3098 3101 3103 3104 3105
3012 3013 3016 3018 3018 3014 3010 3004 3003 3006 3012 3015 3015 3016 3015 3016 3018 3019 3020 3023 3026 3029 3031 3033 3034 3034 3036 3039 3040 3042 3044 3046 3047 3050 3054 3058 3062 3065 3069 3073 3078 3082 3086 3090 3093 3095 3096 3096 3098
3008 3009 3012 3013 3014 3010 3012 3009 3007 3008 3011 3013 3015 3013 3010 3010 3013 3015 3017 3019 3022 3026 3028 3031 3032 3033 3034 3037 3039 3040 3042 3045 3047 3051 3054 3057 3060 3063 3066 3070 3073 3077 3080 3083 3086 3088 3089 3089 3090
Wind_Speed
12 10 6 5 5 10 15 10 10 7 8 7 8 8 7 9 10 10 14 15 16 17 16 10 14 18 23 26 26 23 22 23 22 17 15 15 15 13 10 6 4 5 4 8 11 10 12 12 13
11 9 5 4 11 18 17 6 6 7 8 9 9 8 8 9 8 11 13 12 10 15 13 9 14 19 25 30 27 25 26 26 27 22 19 18 18 14 11 8 7 6 6 11 11 11 10 12 11
11 8 5 13 18 20 13 2 8 10 9 9 7 9 9 8 11 12 12 12 14 13 13 13 12 20 26 31 32 30 28 30 33 29 24 19 21 17 18 11 8 8 10 11 12 13 13 13 13
9 7 9 14 18 14 13 9 9 9 10 10 11 10 11 11 13 13 14 14 15 13 14 18 16 18 24 31 36 35 37 28 40 32 26 23 26 18 16 16 8 6 9 11 13 13 13 14 14
8 7 17 23 19 15 12 12 10 8 9 10 11 12 12 17 14 16 17 15 17 16 16 18 18 20 23 31 36 37 42 40 25 28 13 14 25 26 22 20 12 11 13 14 13 13 15 15 14
10 9 18 21 18 10 13 13 11 9 11 12 12 15 15 17 16 16 15 17 19 20 19 22 19 22 24 29 31 35 31 26 32 38 15 23 30 31 25 23 18 15 15 15 15 15 16 15 13
15 16 21 22 21 17 15 14 12 10 11 13 13 12 13 19 17 15 17 21 21 25 23 24 21 22 23 26 31 31 37 37 21 21 19 28 39 38 22 25 22 16 16 16 16 16 15 14 13
15 17 24 23 20 18 13 14 11 10 9 11 13 13 12 12 20 19 21 22 21 23 24 24 21 23 23 24 27 25 28 22 22 24 19 31 36 40 23 16 22 18 17 18 18 17 15 14 14
15 20 25 20 19 17 13 14 15 12 16 14 14 16 21 23 22 22 24 26 25 24 24 23 21 21 24 26 28 28 25 28 21 13 16 17 31 29 24 22 21 20 18 19 19 17 16 14 13
20 20 23 18 19 16 16 17 16 17 17 16 15 16 24 22 23 24 24 27 27 23 25 23 22 24 25 25 25 22 26 29 32 29 23 22 26 28 27 26 25 20 20 21 20 18 17 14 12
21 27 22 19 19 16 17 19 16 20 23 18 19 18 16 25 23 23 26 26 29 23 25 22 23 26 27 26 21 19 25 32 29 30 25 18 32 28 32 30 30 25 23 23 23 20 18 15 13
26 27 23 24 21 20 22 21 24 23 25 20 23 23 23 23 26 25 24 25 26 23 23 22 23 27 23 25 24 26 15 30 32 30 29 23 32 38 37 35 32 28 25 25 25 22 18 16 15
27 24 24 22 22 23 24 25 26 28 24 24 24 24 26 24 26 21 21 23 23 24 23 21 22 24 22 21 25 26 24 22 28 27 23 26 26 43 38 39 34 30 27 27 24 20 18 15 14
21 23 26 25 26 24 26 27 24 26 21 20 20 21 21 21 19 21 20 22 21 23 21 21 21 20 18 23 22 24 29 28 28 31 30 24 35 44 41 39 33 34 32 28 24 20 18 16 14
23 25 25 28 26 28 24 31 29 27 22 23 21 18 19 21 25 21 23 21 21 22 23 23 20 18 18 22 24 22 27 32 30 30 31 29 37 49 46 42 36 33 32 29 26 22 19 16 15
16 22 27 24 23 24 24 33 21 18 18 20 17 17 19 17 17 19 21 20 20 22 22 20 20 18 20 21 20 23 24 27 28 25 27 35 58 56 56 40 37 35 32 28 26 22 19 17 14
23 29 26 23 20 18 18 21 14 13 14 16 17 16 16 17 17 17 20 18 19 21 20 19 20 19 20 20 20 21 21 21 16 21 22 38 52 54 34 46 39 31 29 27 24 21 16 13 10
26 30 27 26 21 23 21 25 21 19 17 17 17 17 17 17 17 17 20 18 19 20 18 19 20 19 17 18 18 17 15 10 19 30 43 49 47 45 43 33 33 38 39 30 24 17 18 18 16
28 29 29 22 18 13 19 24 23 20 22 22 20 19 19 19 16 20 19 17 17 19 15 17 17 15 15 17 17 15 15 19 27 29 30 37 42 38 40 41 43 43 34 27 24 24 21 20 17
30 33 32 30 25 20 21 26 26 25 25 24 24 20 20 19 18 21 17 15 15 17 13 16 12 18 16 15 16 16 20 21 20 22 19 26 36 42 50 47 45 30 27 28 26 27 26 20 18
33 33 30 31 26 24 21 29 28 29 28 28 25 23 20 21 21 19 16 14 15 15 10 11 9 18 18 19 18 24 23 22 21 15 15 39 42 49 48 43 37 35 34 28 31 30 24 20 18
32 28 27 26 27 26 21 21 23 20 16 21 22 23 21 21 21 19 16 13 12 12 9 8 8 16 19 18 23 23 23 23 19 16 12 20 35 43 42 38 36 30 34 33 31 26 21 20 19
31 21 22 24 28 24 26 25 26 21 24 20 20 21 19 20 22 19 16 13 12 11 10 7 6 14 16 17 21 23 25 19 19 21 16 21 39 39 39 40 35 34 31 31 33 26 26 23 20
17 19 19 17 20 21 25 25 22 21 21 15 14 15 20 20 21 20 19 14 12 11 12 8 5 6 15 18 21 21 27 22 25 27 23 25 39 40 41 36 34 32 31 30 27 27 25 22 22
19 18 12 14 15 13 20 18 21 7 7 9 9 7 14 17 21 22 23 13 11 10 12 9 6 3 7 15 18 22 22 26 26 25 23 30 37 43 42 38 38 34 30 30 27 27 24 24 24
23 25 13 11 10 11 26 12 17 15 16 20 17 12 11 15 19 23 25 16 13 13 13 12 8 5 3 8 16 17 19 16 20 20 24 28 28 25 35 39 38 36 34 33 29 27 27 27 26
22 26 25 29 25 12 13 10 11 14 14 10 12 13 14 16 17 21 25 23 16 15 14 13 12 10 7 6 8 14 18 21 20 19 23 25 26 24 25 34 40 38 37 35 32 31 32 32 30
35 21 20 24 16 17 17 21 24 7 10 12 9 8 12 17 18 21 23 25 20 17 16 15 14 14 12 11 10 10 11 14 18 23 28 23 21 23 29 34 40 37 37 38 37 36 36 34 34
21 33 24 19 24 11 9 9 3 8 10 7 5 8 8 12 19 23 23 27 23 22 20 18 16 15 14 14 13 13 13 13 15 17 21 24 25 25 26 29 35 38 40 41 41 38 37 36 35
18 20 26 25 21 21 25 24 6 3 8 12 2 4 5 12 15 22 24 28 26 24 23 22 19 18 16 16 15 14 14 15 16 16 17 20 22 25 26 29 33 39 41 43 41 38 36 37 38
Wind_Direction
293 290 303 303 261 251 274 256 241 273 284 249 242 240 257 266 281 283 289 305 305 305 295 287 259 256 237 231 247 240 239 225 215 217 220 217 227 224 229 215 227 244 201 207 207 196 185 179 180
288 288 288 236 256 264 286 199 249 264 259 263 252 245 253 266 265 265 295 306 320 333 328 284 251 256 242 238 243 241 241 229 216 213 208 214 220 227 223 230 242 266 228 209 204 201 186 186 172
287 284 259 260 254 266 305 291 252 263 270 251 247 247 252 270 250 254 300 309 316 322 314 312 280 254 247 244 248 246 246 233 220 210 203 213 220 219 220 218 217 238 215 212 203 199 187 179 170
281 279 259 245 260 270 262 282 261 268 272 242 235 263 258 252 271 275 296 307 316 317 312 308 284 263 248 248 248 248 239 235 220 206 201 203 214 218 204 201 231 221 214 206 212 193 185 176 168
263 240 256 257 269 268 258 256 260 255 259 258 234 265 266 273 274 281 286 294 305 307 309 302 290 272 262 252 251 257 258 246 247 177 200 205 222 207 213 211 201 215 200 202 199 199 181 173 170
240 252 258 263 272 259 261 252 255 258 255 253 242 260 264 270 286 283 282 283 293 301 300 300 286 278 270 257 253 259 260 245 249 241 237 269 241 219 196 210 206 207 196 194 190 192 182 174 172
235 244 262 275 279 274 271 256 244 261 259 265 253 257 272 276 286 290 288 290 290 293 298 298 285 275 271 256 249 261 263 241 223 238 267 273 245 227 181 207 209 194 193 189 186 186 183 174 168
240 257 266 265 272 276 283 237 245 258 263 246 238 263 283 264 294 289 295 299 293 295 296 297 280 278 271 258 248 278 249 230 228 244 284 280 190 196 182 199 178 185 188 189 181 183 181 173 167
249 248 256 264 270 271 272 241 246 260 259 266 254 263 265 273 284 287 295 298 298 296 298 295 276 280 269 259 252 280 247 235 227 245 258 253 193 178 178 185 181 186 187 187 179 180 180 180 164
232 247 255 261 271 263 265 253 246 258 273 269 272 275 274 273 280 288 298 299 296 296 299 290 284 279 268 259 260 268 249 231 242 246 254 255 180 183 184 180 182 186 182 183 177 178 180 172 175
237 247 254 260 273 263 261 259 256 261 265 262 270 275 281 281 284 284 297 297 295 298 299 290 288 289 256 245 243 251 231 233 240 239 248 246 220 207 183 184 182 185 181 181 178 177 178 172 173
241 248 256 260 258 267 266 264 261 260 263 264 265 274 273 271 280 283 291 293 289 300 296 293 298 303 250 234 234 230 244 234 237 241 239 235 217 217 188 187 181 178 180 184 179 182 178 178 173
244 252 252 261 267 261 265 264 265 263 263 261 263 268 274 269 273 281 289 289 292 298 293 291 300 306 236 223 229 227 231 224 228 242 230 254 240 201 206 190 179 182 185 185 182 183 185 177 170
252 254 259 261 260 264 265 268 267 267 269 266 262 259 266 268 268 276 287 285 292 292 291 289 296 300 245 230 224 235 226 231 233 240 247 219 220 202 199 184 179 180 187 181 184 183 177 172 173
247 252 259 261 262 261 262 267 264 274 263 258 258 260 266 264 266 275 285 284 289 286 291 284 290 294 248 232 224 231 227 227 235 240 240 236 211 201 190 179 177 181 181 181 180 181 178 175 178
249 253 262 265 266 260 251 261 269 278 256 246 250 260 261 270 266 277 280 287 286 289 290 280 288 289 261 231 231 227 230 236 244 242 238 216 196 204 189 174 174 180 181 180 178 175 175 173 173
246 254 257 269 252 248 238 258 261 258 240 240 250 258 254 261 274 280 281 285 286 295 289 283 287 284 251 229 228 225 232 248 230 217 227 215 198 191 211 164 176 180 184 178 164 166 164 170 180
238 247 254 259 257 243 249 260 268 254 255 260 255 257 252 249 272 283 284 280 287 298 291 288 293 265 231 210 218 236 240 248 234 211 196 190 188 201 175 166 183 183 180 165 171 177 188 195 189
245 251 255 257 253 251 251 266 266 259 254 253 261 259 254 243 248 278 282 276 284 298 290 296 290 241 212 206 223 219 225 200 203 197 187 213 216 188 159 186 188 190 165 177 195 215 195 187 184
246 252 254 255 258 258 267 264 266 263 259 257 252 253 251 243 248 276 276 275 285 295 289 303 280 223 222 208 212 214 193 193 201 218 236 187 173 168 183 185 189 174 186 217 215 202 197 196 197
240 245 248 254 263 263 269 268 270 270 260 252 248 247 243 244 240 271 272 277 282 291 281 303 259 208 223 212 210 201 211 223 225 241 221 177 180 189 189 184 187 210 207 197 194 199 199 200 198
243 242 249 255 261 263 256 276 268 266 261 245 239 242 239 238 230 260 264 279 282 284 265 284 247 213 210 220 209 215 225 226 236 251 239 214 209 193 185 187 196 205 201 205 196 200 204 212 214
241 245 248 252 256 263 256 253 265 264 256 248 245 241 240 230 228 236 253 267 286 276 249 256 233 226 225 223 211 218 225 235 240 233 217 200 183 176 185 193 192 206 211 209 200 205 214 218 225
240 240 245 249 246 250 250 250 259 257 251 247 239 238 233 231 225 221 243 254 280 258 240 237 232 223 221 225 220 213 211 218 225 228 229 204 193 194 189 191 196 206 218 222 199 214 218 224 230
220 217 231 223 228 246 249 236 240 237 243 223 197 226 226 229 225 217 235 244 261 244 232 220 217 226 211 207 217 223 216 216 221 227 227 203 190 192 196 203 208 211 217 202 212 221 224 231 240
205 202 220 217 238 258 237 224 247 253 250 244 244 246 221 223 224 217 225 230 237 230 225 211 204 205 217 195 199 199 206 213 215 223 226 226 228 222 210 210 214 220 216 215 220 227 233 240 248
212 216 229 263 273 274 264 243 239 252 242 236 216 222 246 242 236 219 216 227 220 226 220 214 194 200 195 183 191 204 212 215 215 207 206 223 239 228 223 222 217 218 219 221 227 232 240 246 253
223 227 229 234 256 262 251 246 250 208 223 207 219 247 261 241 228 220 219 222 215 217 216 213 207 192 199 199 185 186 195 204 205 209 209 212 212 219 227 232 221 220 221 226 233 238 243 250 256
212 226 230 240 229 255 276 266 9 201 195 229 226 283 267 230 223 221 221 220 218 217 221 221 219 214 212 212 199 191 192 195 198 202 207 208 210 210 216 216 217 222 226 232 238 243 249 255 261
224 223 227 234 242 246 241 256 329 262 216 188 267 316 308 250 219 212 218 216 215 216 224 228 224 225 223 222 223 215 204 201 201 200 203 209 212 213 216 216 220 225 230 235 241 249 256 261 266